Location: Unspecified
(0.0000°N, 0.0000°E)
Time: 03:28:48
(UTC+00:00)

Transit 4A - Pass Details

Date: 25 November 2019
Orbit: 866 x 978 km, 66.8° (Epoch: 03 July)

Event Time Altitude Azimuth Distance (km) Brightness Sun altitude
Rises 17:37:27 0° 170° (S) 3,676 11.2 2.2°
Reaches altitude 10° 17:40:56 10° 152° (SSE) 2,723 10.3 1.4°
Maximum altitude 17:45:05 18° 111° (ESE) 2,182 9.5 0.4°
Drops below altitude 10° 17:49:11 10° 70° (ENE) 2,693 9.7 -0.5°
Sets 17:52:34 0° 51° (NE) 3,620 10.4 -1.3°
Enters shadow 17:52:41 - 51° (NE) 3,655 10.4 -1.3°
